PAFE

Kake Airport

Airport
ICAO code
PAFE
IATA Code
AFE
Summary
ICAO Region
NAM
ICAO Territory
Location

, Alaska

Serving
Kake
Elevation
172 ft
Coordinates
56° 57' 41" N , 133° 54' 37" W
Metar
PAFE 251356Z AUTO 00000KT 10SM SCT002 OVC070 11/11 A3017 RMK AO2 SLP228 T01110106

Runways

Designator Length Width Surface Rops
11/29 1219 30 ASPH-G No/No

Airport map

Aerial View

SKYbrary Partners:

Safety knowledge contributed by: